This is the latest recevied weather packets stored in our database for station/object KC3ROS. If no packets are shown the sender has not sent any weather packets the latest 10 day(s).
| Time | Temp. | Humidity | Pressure | Rain* | Wind** | Luminosity | Snow |
|---|---|---|---|---|---|---|---|
| 1777763632 | 5° C | 78% | 1014.5 hPa | 0 mm | - | 25 W/m² | - |
| 1777763330 | 5° C | 77% | 1014.3 hPa | 0 mm | - | 35 W/m² | - |
| 1777763028 | 5° C | 77% | 1014.4 hPa | 0 mm | - | 43 W/m² | - |
| 1777762724 | 5° C | 77% | 1014.5 hPa | 0 mm | - | 50 W/m² | - |
| 1777762421 | 5° C | 77% | 1014.6 hPa | 0 mm | - | 55 W/m² | - |
| 1777762118 | 5° C | 77% | 1014.5 hPa | 0 mm | - | 52 W/m² | - |
| 1777761814 | 5° C | 78% | 1014.7 hPa | 0 mm | - | 45 W/m² | - |
| 1777761512 | 5° C | 77% | 1014.4 hPa | 0 mm | - | 42 W/m² | - |
| 1777761209 | 5° C | 76% | 1014.6 hPa | 0 mm | - | 52 W/m² | - |
| 1777760907 | 5° C | 76% | 1014.5 hPa | 0 mm | - | 63 W/m² | - |
| 1777760605 | 5° C | 76% | 1014.6 hPa | 0 mm | - | 70 W/m² | - |
| 1777760300 | 5° C | 76% | 1014.6 hPa | 0 mm | - | 75 W/m² | - |
| 1777759996 | 5.56° C | 77% | 1014.4 hPa | 0 mm | - | 81 W/m² | - |
| 1777759693 | 5° C | 75% | 1014.6 hPa | 0 mm | - | 84 W/m² | - |
| 1777759383 | 5° C | 73% | 1014.5 hPa | 0 mm | - | 92 W/m² | - |
| 1777759080 | 5° C | 76% | 1014.6 hPa | 0 mm | - | 92 W/m² | - |
| 1777758777 | 5° C | 78% | 1014.6 hPa | 0 mm | - | 67 W/m² | - |
| 1777758475 | 5° C | 78% | 1014.4 hPa | 0 mm | - | 58 W/m² | - |
| 1777758171 | 5° C | 76% | 1014.3 hPa | 0 mm | - | 69 W/m² | - |
| 1777757868 | 5° C | 77% | 1014.4 hPa | 0 mm | - | 68 W/m² | - |
| 1777757566 | 5.56° C | 76% | 1014.3 hPa | 0 mm | - | 91 W/m² | - |
| 1777757264 | 5.56° C | 73% | 1014.4 hPa | 0 mm | - | 114 W/m² | - |
| 1777756963 | 5.56° C | 75% | 1014.3 hPa | 0 mm | - | 131 W/m² | - |
| 1777756658 | 5.56° C | 73% | 1014.2 hPa | 0 mm | - | 123 W/m² | - |
| 1777756355 | 6.11° C | 76% | 1014.2 hPa | 0 mm | - | 176 W/m² | - |
* Rain latest hour (hover to see other rain measurements)
** Current wind speed in m/s (hover to see current wind gust speed)